{"data":{"norad_id":58938,"intl_designator":"2024-027H","name":"STARLINK-31377","alt_names":[],"object_type":"PAYLOAD","status":"ACTIVE","operator":null,"country":"US","launch_date":"2024-02-10","launch_site_code":"AFWTR","launch_vehicle":null,"mission":null,"orbit_class":"UNKNOWN","rcs_meters":null,"size_class":null,"mass_kg":null,"dimensions":null,"purposes":["comms"],"wikipedia_slug":null,"has_3d_model":false,"image_url":null,"decayed_at":null,"tle_current":{"epoch":"2026-09-20T21:34:25.023936Z","epoch_age_seconds":121284,"freshness":"FRESH","line1":"1 58938U 24027H   26263.89890074 -.00000740  00000+0 -10785-4 0  9999","line2":"2 58938  53.1566 121.6255 0001156  93.0186 267.0949 15.34394933147231","mean_motion":15.34394933,"eccentricity":0.0001156,"inclination_deg":53.1566,"raan_deg":121.6255,"arg_perigee_deg":93.0186,"mean_anomaly_deg":267.0949,"bstar":-1.0785e-5,"rev_number":14723,"period_min":93.848067992805,"perigee_km":461.92749756764,"apogee_km":463.5091033131,"semimajor_km":6840.8553004404,"source":"CELESTRAK","updated_at":"2026-09-21T09:00:33.997249Z"}}}